Regional Weather Roundup
Issued by NWS

Home | Current Version | Previous Version | Text Only | Print | Product List | Glossary On
Versions: 1 2 3 4 5 6 7 8 9 10 11 12 13 14 15 16 17 18 19 20 21 22 23 24 25 26 27
000
ASUS44 KLIX 201813
RWRLA
LOUISIANA WEATHER ROUNDUP
NATIONAL WEATHER SERVICE NEW ORLEANS LA
1200 PM CST MON FEB 20 2017

NOTE: "FAIR" INDICATES FEW OR NO CLOUDS BELOW 12,000 FEET WITH NO
      SIGNIFICANT WEATHER AND/OR OBSTRUCTIONS TO VISIBILITY.
      SKY/WX - SKY CONDITION AND SIGNIFICANT WEATHER.
      TMP - AIR TEMPERATURE.    DP   - DEWPOINT TEMPERATURE.
      RH  - RELATIVE HUMIDITY.  PRES - PRESSURE.
      HX  - HEAT INDEX.         WCI  - WIND CHILL INDEX.

*  THESE STATIONS ARE NOT NWS OR FAA STATIONS AND ARE NOT UNDER
   NWS QUALITY CONTROL.

LAZ040-048-061>063-065-066-069-201900-
SOUTHEAST LOUISIANA

CITY           SKY/WX    TMP DP  RH WIND       PRES   REMARKS
N.O. AUDUBON   NOT AVBL
N.O. INTL ARPT PTSUNNY   77  66  68 S18G24    30.05F
6HR MIN TEMP:  66; 6HR MAX TEMP:  78;

N.O. LAKEFRONT CLOUDY    74  67  78 E13       30.07F
6HR MIN TEMP:  65; 6HR MAX TEMP:  74;

N.O. DOWNTOWN*   N/A     77  67  71 SE8       30.07F
6HR MIN TEMP:  67; 6HR MAX TEMP:  77;

RESERVE*       CLOUDY    80  69  68 SE14      30.06F
6HR MIN TEMP:  68; 6HR MAX TEMP:  80;

SLIDELL        PTSUNNY   76  62  62 S10       30.08F
6HR MIN TEMP:  63; 6HR MAX TEMP:  76;

BATON ROUGE    PTSUNNY   79  66  64 S18       30.04F
6HR MIN TEMP:  67; 6HR MAX TEMP:  80;

BOOTHVILLE     PTSUNNY   75  69  81 SE12      30.07F
6HR MIN TEMP:  60; 6HR MAX TEMP:  75;

BELLE CHASSE   MOSUNNY   76  68  76 SE14      30.05F
6HR MIN TEMP:  67; 6HR MAX TEMP:  77;

BOGALUSA*      FAIR      79  56  44 SE8       30.10F
6HR MIN TEMP:  62; 6HR MAX TEMP:  79;

GALLIANO*      MOCLDY    76  67  73 SE9G18    30.06S
6HR MIN TEMP:  68; 6HR MAX TEMP:  77;

NEW ROADS*     CLOUDY    78  66  68 SE13G21   30.03F
6HR MIN TEMP:  66; 6HR MAX TEMP:  78;

GONZALES*      CLOUDY    77  67  72 SE7       30.04F
6HR MIN TEMP:  67; 6HR MAX TEMP:  77;

HAMMOND*       PTSUNNY   77  63  61 E9        30.07F
HOUMA*         PTSUNNY   79  70  73 SE15      30.06F
PORT FOURCHON* CLEAR     73  68  83 SE13      30.05S

$$

LAZ041-044-053-054-201900-
SOUTHWEST LOUISIANA

CITY           SKY/WX    TMP DP  RH WIND       PRES   REMARKS
LAKE CHARLES   CLOUDY    75  68  78 SE17      29.98F
6HR MIN TEMP:  69; 6HR MAX TEMP:  77; 6HR PCP: TRACE;

LAFAYETTE      CLOUDY    78  68  71 S14G25    30.03S
6HR MIN TEMP:  73; 6HR MAX TEMP:  79;

PATTERSON      CLOUDY    76  69  79 SE15      30.04F
6HR MIN TEMP:  70; 6HR MAX TEMP:  77;

SALT POINT       N/A     74  68  81 SE13G23   30.01F
6HR MIN TEMP:  69; 6HR MAX TEMP:  74;

NEW IBERIA     CLOUDY    77  66  68 S21       30.03F
6HR MIN TEMP:  70; 6HR MAX TEMP:  79; 6HR PCP: TRACE;

CHENAULT AIRPK CLOUDY    73  70  88 SE9G16    29.99F

$$

LAZ027-028-201900-
CENTRAL LOUISIANA

CITY           SKY/WX    TMP DP  RH WIND       PRES   REMARKS
FORT POLK      CLOUDY    75  66  74 S10       29.98F
6HR MIN TEMP:  68; 6HR MAX TEMP:  76; 6HR PCP: TRACE;

ALEXANDRIA INT CLOUDY    76  66  71 S13       30.00F
6HR MIN TEMP:  67; 6HR MAX TEMP:  76;

ALEXANDRIA     PTSUNNY   78  66  66 S8        30.02F
6HR MIN TEMP:  67; 6HR MAX TEMP:  79;


$$

LAZ001-002-201900-
NORTHWEST LOUISIANA

CITY           SKY/WX    TMP DP  RH WIND       PRES   REMARKS
SHREVEPORT     CLOUDY    63  60  90 N6        30.03F
6HR MIN TEMP:  62; 6HR MAX TEMP:  67; 6HR PCP:  0.03;

BARKSDALE AFB  CLOUDY    62  59  90 N8        30.04F
6HR MIN TEMP:  60; 6HR MAX TEMP:  66; 6HR PCP:  0.05;

DTN SHREVEPORT LGT RAIN  63  57  81 NW5       30.04F
6HR MIN TEMP:  61; 6HR MAX TEMP:  68; 6HR PCP:  0.03;


$$

LAZ014-016-201900-
NORTHEAST LOUISIANA

CITY           SKY/WX    TMP DP  RH WIND       PRES   REMARKS
MONROE         CLOUDY    75  64  68 S9        30.04F
6HR MIN TEMP:  64; 6HR MAX TEMP:  75;

TALLULAH       SUNNY     77  61  57 S16       30.05F
6HR MIN TEMP:  51; 6HR MAX TEMP:  77;


$$





USA.gov is the U.S. government's official web portal to all federal, state and local government web resources and services.